FENGYUN 1C DEB

Satellite information

Favourite Embed

Satellite Type and Status

DEBRISIN ORBIT

Key statistics

Satellite FENGYUN 1C DEB at a glance.

Uptime

9659

Days in orbit

Revolutions

≈ 13.9

Per day

Orbit

SSO

Sun Synchronous Orbit

Inclination

99.3

Latest

Satellite identification and parameters

Extended collection of information and parameters for FENGYUN 1C DEB.

Object identification

Identified? True

Debris? True

Object name: FENGYUN 1C DEB

International designator: 1999-025AJN

Object number (NORAD): 30524

Object ID (CCSDS): 30524

Country: PEOPLES REPUBLIC OF CHINA (PRC)

Current information (Y/N): Y

RCS size: SMALL

Orbital parameters

Period: 103.502 minutes

Inclination: 99.3109 deg

SMA: 7302.281 km

Apoapsis: 1074.502 km

Periapsis: 773.79 km

RAAN: 102.2876 deg

Eccentricy: 0.02059034

Argument of periapsis: 42.0589 deg

Mean anomaly: 319.6171 deg

Mean motion: 13.91281312 rev/day

Mean motion (dot): 0.00006217 rev/day2

B* drag term: 0.0041770387 1/REarth

Two-line elements (TLE)

Creation date: Oct. 18, 2025, 2:17 a.m.

Reference frame: TEME

Reference center: EARTH

Epoch: Oct. 17, 2025, 10:18 a.m. UTC

TLE line 0: 0 FENGYUN 1C DEB

TLE line 1: 1 30524U 99025AJN 25290.42948328 .00006217 00000-0 41770-2 0 9994

TLE line 2: 2 30524 99.3109 102.2876 0205903 42.0589 319.6171 13.91281312931024

Live tracking on map

Real-time ground track for satellite FENGYUN 1C DEB.

In-orbit conjunctions

A list of the most updated potential collisions computed for object FENGYUN 1C DEB.

Target Orbit TCA Probability of collision Miss distance Type
CZ-6A DEB SSO 2025-09-20 08:19:09 0.0001193368 60.0 (m) DEBRIS
IRS 1C SSO 2025-05-13 18:40:45 0.0001426288 558.0 (m) PAYLOAD
COSMOS 1867 COOLANT LEO 2025-01-07 04:03:15 0.0001393245 115.0 (m) DEBRIS
CZ-6A DEB SSO 2024-08-18 12:43:29 0.0003591 41.0 (m) DEBRIS

Associated space launch

Chinese polar orbiting meteorological satellite

FENGYUN 1C DEB was lifted into orbit during the mission ‘Long March 4B | Feng Yun 1C’, on board a Long March 4B space rocket.

The launch took place on May 10, 1999, 1:33 a.m. from Launch Complex 7.

For more information about the launch, click the button.

Launch to space Long March 4B | Feng Yun 1C
Long March 4B | Feng Yun 1C

Agency: N/A

Status: Launch Successful

Launch date: May 10, 1999, 1:33 a.m. UTC

Rocket: Long March 4B

Launch pad: Launch Complex 7

Location: Taiyuan Satellite Launch Center, People's Republic of China

...

Latest news about this satellite

There are no fresh news available about this satellite. Check back as we update our databases every day.


Newsletter sign-up

Weekly statistics, charts and insights to help you stay on top of the space industry.